White Plains, CT

8:43 AM EST on December 15, 2019 (GMT -0500)
Westchester County

Weather History for KHPN - August, 2019

Change the Weather History Date:

Monday, August 5, 2019

  Actual Average Record
Temperature  
Mean Temperature 71 °F -  
Max Temperature 78 °F 80 °F 94 °F (1989)
Min Temperature 64 °F 63 °F 59 °F (1993)
Cooling Degree Days 6    
Growing Degree Days 21 (Base 50)    
Moisture  
Dew Point 56 °F    
Average Humidity 59    
Maximum Humidity 94    
Minimum Humidity 38    
Precipitation  
Precipitation 0.00 in - - ()
Sea Level Pressure  
Sea Level Pressure 29.98 in    
Wind  
Wind Speed 6 mph (East)    
Max Wind Speed 10 mph    
Max Gust Speed -    
Visibility 10 miles    
Events      
Averages and records for this station are not official NWS values.
T = Trace of Precipitation, MM = Missing Value Source: NWS Daily Summary

Daily Weather History Graph

Daily Weather History Graph

Search for Another Location

Airport or City:

Astronomy

Aug. 05, 2019 Rise Set
Actual Time 5:54 AM EDT 8:06 PM EDT
Civil Twilight 5:23 AM EDT 8:37 PM EDT
Nautical Twilight 4:46 AM EDT 9:14 PM EDT
Astronomical Twilight 4:04 AM EDT 9:55 PM EDT
Moon 11:10 AM EDT (8/5) 11:14 PM EDT (8/5)
Length of Visible Light 15h 13m
Length of Day
14h 12m
Waxing Crescent, 28% of the Moon is Illuminated
Aug 5
Waxing Crescent
Aug 7
First Quarter
Aug 15
Full
Aug 23
Last Quarter
Aug 30
New

Hourly Weather History & Observations

Time (EDT) Temp. Dew Point Humidity Pressure Visibility Wind Dir Wind Speed Gust Speed Precip Events Conditions
12:56 AM 71.6 °F 64.4 °F 78% 29.95 in 10.0 mi NNW 5.8 mph - N/A   Partly Cloudy
1:56 AM 71.6 °F 60.8 °F 69% 29.95 in 10.0 mi North 9.2 mph - N/A   Partly Cloudy
2:56 AM 69.8 °F 55.4 °F 60% 29.95 in 10.0 mi North 9.2 mph - N/A   Clear
3:56 AM 68.0 °F 55.4 °F 64% 29.96 in 10.0 mi North 10.4 mph - N/A   Clear
4:53 AM 66.2 °F 55.4 °F 68% 29.96 in 10.0 mi East 5.8 mph - N/A   Partly Cloudy
5:56 AM 64.4 °F 53.6 °F 68% 29.96 in 10.0 mi North 5.8 mph - N/A   Partly Cloudy
6:56 AM 64.4 °F 55.4 °F 73% 30.00 in 10.0 mi NNE 5.8 mph - N/A   Scattered Clouds
7:56 AM 68.0 °F 51.8 °F 56% 30.02 in 10.0 mi ENE 5.8 mph - N/A   Scattered Clouds
8:56 AM 71.6 °F 51.8 °F 50% 30.03 in 10.0 mi ENE 6.9 mph - N/A   Partly Cloudy
9:56 AM 73.4 °F 50.0 °F 44% 30.03 in 10.0 mi East 6.9 mph - N/A   Clear
10:56 AM 73.4 °F 51.8 °F 47% 30.03 in 10.0 mi East 3.5 mph - N/A   Clear
11:56 AM 77.0 °F 53.6 °F 44% 30.12 in 10.0 mi Variable 3.5 mph - N/A   Clear
12:56 PM 75.2 °F 57.2 °F 53% 30.02 in 10.0 mi South 6.9 mph - N/A   Clear
1:56 PM 75.2 °F 48.2 °F 38% 30.01 in 10.0 mi ESE 8.1 mph - N/A   Partly Cloudy
2:56 PM 78.8 °F 51.8 °F 39% 29.99 in 10.0 mi East 5.8 mph - N/A   Partly Cloudy
3:56 PM 78.8 °F 55.4 °F 44% 29.95 in 10.0 mi South 3.5 mph - N/A   Clear
4:56 PM 78.8 °F 55.4 °F 44% 29.97 in 10.0 mi SSE 6.9 mph - N/A   Clear
4:57 PM 78.8 °F 55.4 °F 44% 29.97 in 10.0 mi SSE 6.9 mph - N/A   Partly Cloudy
5:56 PM 77.0 °F 55.4 °F 47% 29.94 in 10.0 mi South 3.5 mph - N/A   Clear
7:56 PM 71.6 °F 60.8 °F 69% 29.95 in 10.0 mi SSE 5.8 mph - N/A   Clear
8:56 PM 71.6 °F 60.8 °F 69% 29.95 in 10.0 mi SSE 4.6 mph - N/A   Clear
9:56 PM 68.0 °F 60.8 °F 78% 29.96 in 10.0 mi Calm Calm - N/A   Clear
10:56 PM 68.0 °F 62.6 °F 83% 29.95 in 10.0 mi Calm Calm - N/A   Clear
11:56 PM 66.2 °F 64.4 °F 94% 29.95 in 10.0 mi Calm Calm - N/A   Clear